Regional Weather Roundup
Issued by NWS Wakefield, VA

Home | Current Version | Previous Version | Text Only | Print | Product List | Glossary Off
Versions: 1 2 3 4 5 6 7 8 9 10 11 12 13 14 15 16 17 18 19 20 21 22 23 24 25 26 27 28

000
ASUS41 KAKQ 261915
RWRAKQ

REGIONAL WEATHER ROUNDUP
NATIONAL WEATHER SERVICE WAKEFIELD VA
300 PM EDT FRI MAY 26 2017

Note: "fair" indicates few or no clouds below 12,000 feet with no
significant weather and/or obstructions to visibility. * = Denotes
station may not report precipitation (e.g., rain,snow,etc.),
thunder or fog.

VAZ042-051-052>054-056-262000-
NORTHERN VIRGINIA

CITY           SKY/WX    TMP DP  RH WIND       PRES   REMARKS
WASH NATIONAL  PTSUNNY   76  55  48 W18G32    29.77R
DULLES         PTSUNNY   74  54  49 W20       29.78S
FORT BELVOIR   MOSUNNY   77  54  45 W16G25    29.78R
QUANTICO       PTSUNNY   76  54  46 W18G26    29.79R
FREDERICKSBRG* MOSUNNY   76  55  48 W7G17     29.79R
STAFFORD*      CLOUDY    73  55  53 W7        29.84R
WARRENTON      PTSUNNY   77  50  39 W14G21    29.79S
CULPEPER*      PTSUNNY   77  55  46 W13G21    29.81S
MANASSAS*      PTSUNNY   77  55  46 NW16G30   29.79R
LEESBURG*      PTSUNNY   77  61  57 W18G31    29.79R
WINCHESTER     CLOUDY    68  52  56 W16G23    29.82R
FRONT ROYAL*   MOCLDY    73  55  53 W16G24    29.81S
LURAY*         CLOUDY    73  54  49 W10G20    29.85R
$$

VAZ048-049-060>072-079>083-262000-
CENTRAL AND SOUTH CENTRAL VIRGINIA

CITY           SKY/WX    TMP DP  RH WIND       PRES   REMARKS
RICHMOND       MOSUNNY   79  55  43 NW15G21   29.81S
CHESTERFIELD*  NOT AVBL
PETERSBURG*    PTSUNNY   78  52  40 W14G20    29.84S
HANOVER        SUNNY     79  52  38 W17G25    29.82S
TAPPAHANNOCK*  MOSUNNY   79  46  30 W13G25    29.80S
QUINTON*       MOCLDY    76  55  48 W7G21     29.80S
CHARLOTTSVILLE SUNNY     78  51  38 NW14G28   29.82F
GORDONSVILLE*  CLOUDY    76  54  45 W5        29.81S
ORANGE*        PTSUNNY   77  52  41 W14G28    29.82S
LOUISA*        PTSUNNY   81  61  50 W7        29.81S
BUMPASS*       MOCLDY    76  56  49 W10       29.81S
FARMVILLE*     MOSUNNY   79  45  30 W8        29.84F
CREWE*         CLOUDY    76  47  35 W7        29.85S
FORT PICKETT*  CLOUDY    76  46  34 W15G23    29.86S
CHASE CITY*    FAIR      77  50  37 W7G17     29.87S
CLARKSVILLE*   MOCLDY    77  54  44 W7G17     29.88S
SOUTH HILL*    MOSUNNY   77  55  46 W9G17     29.92F
LAWRENCEVILLE* MOCLDY    76  53  44 W6        29.86F
EMPORIA*       MOSUNNY   77  54  44 SW13      29.87S
$$

VAZ088>098-262000-
SOUTHEAST VIRGINIA

CITY           SKY/WX    TMP DP  RH WIND       PRES   REMARKS
NORFOLK        SUNNY     81  56  42 NW8G17    29.81S
VIRGINIA BEACH MOSUNNY   80  57  45 NW8       29.79S
NORFOLK NAVAL  MOSUNNY   80  54  40 W12       29.82S
WEST POINT*    SUNNY     79  52  39 W13G21    29.80S
SALUDA*        FAIR      79  58  48 W7G18     29.78S
NEWPORT NEWS   SUNNY     79  56  45 W13G22    29.80F
LANGLEY AFB    MOSUNNY   79  60  51 W15G22    29.79F
FORT EUSTIS    SUNNY     80  58  47 W13G22    29.78F
WILLIAMSBURG*  SUNNY     82  55  39 NW13G23   29.81S
HR EXEC AP*    MOCLDY    79  57  47 W9G18     29.79S
FRANKLIN*      MOSUNNY   78  55  45 W13G22    29.84S
US460-WAKEFLD  MOSUNNY   80  57  45 VRB7G17   29.82F
$$

VAZ020-022-025-037-045-262000-
WEST CENTRAL AND SOUTHWEST VIRGINIA

CITY           SKY/WX    TMP DP  RH WIND       PRES   REMARKS
STAUNTON*      MOSUNNY   73  51  44 W14       29.88S
WAYNESBORO*    MOCLDY    73  53  50 W10G23    29.88S
HOT SPRINGS VA PTSUNNY   63  39  42 W16G29    29.97S
LYNCHBURG      SUNNY     77  52  41 W12G20    29.89F
DANVILLE       MOSUNNY   78  57  48 W15       29.90S
SOUTH BOSTON*  FAIR      80  51  36 W13G18    29.88S
MARTINSVILLE   MOSUNNY   78  53  41 W6        29.94F
ROANOKE        MOSUNNY   76  50  40 NW18G29   29.93S
BLACKSBURG     SUNNY     71  51  49 NW10G20   29.99S
DUBLIN*        SUNNY     74  43  33 W14G24    29.99R
MARION*        MOSUNNY   71  52  49 W15G22    30.03S
HILLSVILLE*    PTSUNNY   70  44  39 NW13G18   29.99S
RICHLANDS*     FAIR      69  42  37 W10G20    30.03F
WISE*          SUNNY     72  48  43 W5        30.05F
ABINGDON*      PTSUNNY   72  55  54 NW12      30.03S
$$

MDZ021>025-VAZ099-100-262000-
SOUTHERN MARYLAND AND THE DELMARVA PENINSULA

CITY           SKY/WX    TMP DP  RH WIND       PRES   REMARKS
PATUXENT RIVER PTSUNNY   76  60  57 W18G24    29.76R
BAY BRIDGE APT CLOUDY    72  57  60 NW13      29.75S
LEONARDTOWN    PTSUNNY   73  55  53 W16       29.78S
DOVER          MOSUNNY   76  65  67 W18G30    29.69R
GEORGETOWN     CLOUDY    76  57  51 W13G21    29.73S
EASTON         PTSUNNY   75  57  53 NW13G21   29.78S
CAMBRIDGE      MOSUNNY   75  59  57 W10G17    29.75S
SALISBURY      PTSUNNY   75  57  53 W20G26    29.74F
OCEAN CITY     PTSUNNY   75  57  53 W21G33    29.74F
WALLOPS ISLAND MOSUNNY   77  58  51 W13G22    29.75F
ACCOMACK*      SUNNY     77  15   9 W12G18    29.78R
$$

NCZ012>017-030>032-262000-
NORTH CENTRAL AND EASTERN NORTH CAROLINA

CITY           SKY/WX    TMP DP  RH WIND       PRES   REMARKS
ROANOKE RAPIDS FAIR      79  55  44 W10G23    29.87F
RALEIGH        MOSUNNY   80  56  43 W15G21    29.91F
ELIZABETH CITY PTSUNNY   81  60  48 W16G24    29.83S
AHOSKIE*       NOT AVBL
EDENTON*       MOSUNNY   81  56  42 W15G21    29.86S
CURRITUCK*     MOSUNNY   80  55  42 W13G22    29.83S
KILL DEVIL HLS SUNNY     78  55  44 W12G22    29.83S
MANTEO         SUNNY     78  55  44 NW12G21   29.85R
CAPE HATTERAS  SUNNY     80  59  48 W13G21    29.87F
TARBORO*       NOT AVBL
GOLDSBORO      SUNNY     82  54  38 W16G24    29.88F
WASHINGTON     MOSUNNY   78  56  47 W10G16    29.88S
GREENVILLE     MOSUNNY   81  55  41 NW10G17   29.90S
NEW BERN       MOSUNNY   82  57  42 W15G24    29.89F
WILMINGTON     SUNNY     83  56  39 W13G20    29.91F
$$

VAZ048-262000-
ELSEWHERE

CITY           SKY/WX    TMP DP  RH WIND       PRES   REMARKS
HARRISBURG PA  PTSUNNY   73  54  51 NW21      29.70S
BALTIMORE      PTSUNNY   73  58  59 W21G29    29.74S
ANNAPOLIS      PTSUNNY   76  58  53 NW12G22   29.74S
ANDREWS AFB    MOSUNNY   74  54  49 NW14G22   29.76R
PHILADELPHIA   LGT RAIN  73  54  51 W17G23    29.68R
HENDERSON NC   SUNNY     75  53  46 W8G20     29.89F
GREENSBORO     PTSUNNY   78  55  44 W15       29.92F
ROCKY MOUNT    MOSUNNY   79  56  45 W9        29.88F
$$

VAZ100-262000-
MARINE

STATION/POSITION TIME  TEMP    WIND        PRES    WAVE   SWELL
                       AIR SEA DIR/SP/G            HT/PER HT/PER
                 (UTC) (F)     (DEG/KT/KT) (MB)    (FT/S) (FT/S)
CAPE MAY NJ      1848   70 64  300/ 11/ 14 1005.7R
LEWES DE         1848   73 63  290/ 19/ 25 1005.9S
15NM E FENWICK I 1850   66 58  280/ 14/ 16 1006.9F   4/ 8   3/ 8
WACHAPREAGUE VA  1848   78 73  230/ 10/ 15 1007.8F
THOMAS POINT MD  1900   72 64  280/ 15/ 18   N/A
GOOSES REEF MD   1900   72 63  300/ 14/ 19 1008.3    2/ 2
COVE POINT MD    1848   74     300/ 15/ 25 1008.1F
SOLOMONS ISLAND  1848   74 66  270/ 13/ 20   N/A
BISHOPS HEAD MD  1848   72 71  290/ 10/ 11 1008.2F
PINEY POINT MD   1848          320/ 16/ 17   N/A
POTOMAC MD       1850   73     300/ 16/ 19 1007.0F
CAMBRIDGE MD     1842   75 69                N/A
LEWISETTA VA     1848   76 68  310/ 21/ 25 1008.0F
RAPPAHANNOCK LGT 1848          270/ 10/ 11 1008.9F
STINGRAY PT      1850   74     310/ 12/ 16 1008.8F
YORK RVR RNG VA  1848   75     280/ 15/ 17 1008.0F
YORKTOWN VA      1848   76 69  280/ 11/ 15 1008.6F
JAMESTOWN VA     1850   75     280/ 14/ 16   N/A
DOMINION TERM VA 1848   75     300/ 14/ 17 1009.3S
KIPTOPEKE VA     1848      68  280/ 11/ 13   N/A
CHES BAY BRIDGE  1848   74 67  270/ 15/ 17 1008.9F
CAPE HENRY VA    1848   76     280/ 14/ 18   N/A
WILLOUBY STN VA  1848   75     280/ 13/ 15 1009.1F
S CRANEY ISL VA  1848   79     270/ 10/ 15 1009.1F
CAPE HENRY BUOY  1842      64                N/A     2/ 9
1ST LANDING BUOY 1900   73 67              1009.2    1/ 2
CAPE CHARLES BUO 1851      66                N/A     2/ 8
64NM E OF VA BCH 1850   65 62  240/  8/ 10 1009.9    6/ 8   5/ 8
DUCK PIER NC     1848   76 63  280/ 15/ 18 1009.6F
44100 DUCK FRF   1835      65                N/A     2/ 8
44056 DUCK FRF   1830      63                N/A     2/ 8
OREGON INLET NC  1842   78 72  270/ 11/ 14 1010.2F
HATTERAS NC      1848   75 72  270/ 14/ 17 1011.3F
DIAMOND SHLS NC  1850   75 79  240/ 19/ 21 1011.5    6/ 8   3/16
CAPE LOOKOUT NC  1800   76     230/ 12/ 16 1012.1F
$$




USA.gov is the U.S. government's official web portal to all federal, state and local government web resources and services.